N5AET-1 Weather Reports


Display with metric or nautical units.
time (UTC)temp
F
wind
direction
speed
MPH
gust
MPH
rain 1hr
in
rain 24hr
in
rain mn
in
humidity
%
barometer
mb
20260831182516 99 252 0.0 3.0 0.00 0.00 0.00 35 990.8
20260831181516 99 188 1.0 6.0 0.00 0.00 0.00 34 990.9
20260831180516 99 96 1.0 7.0 0.00 0.00 0.00 38 991.1
20260831175516 98 163 0.0 5.0 0.00 0.00 0.00 38 991.3
20260831174516 98 0.0 2.0 0.00 0.00 0.00 39 991.6
20260831173516 98 197 2.0 4.0 0.00 0.00 0.00 40 991.7
20260831172516 97 187 0.0 4.0 0.00 0.00 0.00 40 991.8
20260831171516 96 190 2.0 4.0 0.00 0.00 0.00 42 991.9
20260831170536 95 180 0.0 3.0 0.00 0.00 0.00 43 992.0
20260831165516 96 181 2.0 4.0 0.00 0.00 0.00 43 992.0
20260831164516 96 162 2.0 4.0 0.00 0.00 0.00 43 991.9
20260831163516 95 144 0.0 1.0 0.00 0.00 0.00 44 992.0
20260831162516 95 163 1.0 5.0 0.00 0.00 0.00 45 992.0
20260831161516 95 148 1.0 2.0 0.00 0.00 0.00 45 992.1
20260831160536 94 159 1.0 3.0 0.00 0.00 0.00 46 992.1
20260831155516 93 227 0.0 2.0 0.00 0.00 0.00 47 992.0
20260831154516 92 238 1.0 6.0 0.00 0.00 0.00 46 992.0
20260831153516 92 249 2.0 7.0 0.00 0.00 0.00 45 992.1
20260831152516 91 174 2.0 5.0 0.00 0.00 0.00 46 992.0
20260831151516 91 227 0.0 1.0 0.00 0.00 0.00 50 992.0
20260831150536 90 0.0 0.0 0.00 0.00 0.00 52 991.9
20260831145556 89 0.0 3.0 0.00 0.00 0.00 53 991.9
20260831144516 89 0.0 0.0 0.00 0.00 0.00 56 991.9
20260831143516 88 126 1.0 2.0 0.00 0.00 0.00 57 991.8
20260831142516 88 245 0.0 2.0 0.00 0.00 0.00 57 991.8
20260831141536 87 253 4.0 9.0 0.00 0.00 0.00 58 991.7
20260831140516 86 226 1.0 5.0 0.00 0.00 0.00 60 991.8
20260831135516 85 254 2.0 8.0 0.00 0.00 0.00 62 991.7
20260831134516 84 0.0 0.0 0.00 0.00 0.00 65 991.6
20260831133517 83 147 1.0 2.0 0.00 0.00 0.00 67 991.5
20260831132516 82 171 0.0 1.0 0.00 0.00 0.00 68 991.4
20260831131516 82 0.0 0.0 0.00 0.00 0.00 70 991.3
20260831130516 82 143 0.0 1.0 0.00 0.00 0.00 69 991.2
20260831125516 82 0.0 0.0 0.00 0.00 0.00 70 991.1
20260831124536 82 0.0 0.0 0.00 0.00 0.00 70 990.9
20260831123516 81 0.0 0.0 0.00 0.00 0.00 73 990.8
20260831122516 80 0.0 0.0 0.00 0.00 0.00 75 990.6
20260831121516 79 0.0 0.0 0.00 0.00 0.00 76 990.5
20260831120516 78 0.0 0.0 0.00 0.00 0.00 77 990.3
20260831115516 79 0.0 0.0 0.00 0.00 0.00 76 990.2
20260831114536 79 0.0 0.0 0.00 0.00 0.00 76 990.2
20260831113516 79 0.0 0.0 0.00 0.00 0.00 76 990.0
20260831112516 79 0.0 0.0 0.00 0.00 0.00 75 989.9
20260831111536 79 0.0 0.0 0.00 0.00 0.00 74 989.8
20260831110536 80 0.0 0.0 0.00 0.00 0.00 73 989.8
20260831105516 80 0.0 0.0 0.00 0.00 0.00 72 989.7
20260831104516 80 0.0 0.0 0.00 0.00 0.00 70 989.7
20260831102516 82 0.0 0.0 0.00 0.00 0.00 66 989.7
20260831101536 82 0.0 0.0 0.00 0.00 0.00 65 989.7
20260831100516 83 0.0 0.0 0.00 0.00 0.00 62 989.7
20260831095516 84 0.0 0.0 0.00 0.00 0.00 63 989.6
20260831094516 84 0.0 0.0 0.00 0.00 0.00 61 989.5
20260831093516 85 0.0 0.0 0.00 0.00 0.00 60 989.5
20260831092516 85 249 4.0 8.0 0.00 0.00 0.00 60 989.4
20260831091556 85 219 1.0 3.0 0.00 0.00 0.00 59 989.3
20260831090536 85 0.0 0.0 0.00 0.00 0.00 57 989.2
20260831085516 86 247 2.0 3.0 0.00 0.00 0.00 56 989.2
20260831084516 86 252 0.0 2.0 0.00 0.00 0.00 55 989.2
20260831083516 86 0.0 2.0 0.00 0.00 0.00 54 989.1
20260831082536 86 236 0.0 2.0 0.00 0.00 0.00 54 989.0
20260831081516 86 191 1.0 6.0 0.00 0.00 0.00 54 989.1
20260831080516 86 226 1.0 5.0 0.00 0.00 0.00 52 989.1
20260831075516 87 243 1.0 3.0 0.00 0.00 0.00 52 989.0
20260831074516 87 207 0.0 1.0 0.00 0.00 0.00 52 988.9
20260831073516 87 185 1.0 4.0 0.00 0.00 0.00 51 988.9
20260831072516 87 0.0 0.0 0.00 0.00 0.00 50 988.9
20260831071516 87 194 0.0 2.0 0.00 0.00 0.00 50 988.8
20260831070516 87 174 0.0 1.0 0.00 0.00 0.00 50 988.8
20260831065516 87 201 0.0 1.0 0.00 0.00 0.00 51 988.9
20260831064516 87 0.0 1.0 0.00 0.00 0.00 51 989.0
20260831063516 87 0.0 0.0 0.00 0.00 0.00 51 989.0
20260831062516 87 0.0 0.0 0.00 0.00 0.00 51 988.9
20260831061516 87 0.0 0.0 0.00 0.00 0.00 51 988.9
20260831060516 88 0.0 0.0 0.00 0.00 0.00 51 988.9
20260831055516 88 0.0 0.0 0.00 0.00 0.00 50 989.0
20260831054516 88 0.0 1.0 0.00 0.00 0.00 50 989.0
20260831053516 88 0.0 1.0 0.00 0.00 0.00 50 989.0
20260831052536 88 0.0 1.0 0.00 0.00 0.00 50 989.0
20260831051516 88 0.0 0.0 0.00 0.00 0.00 49 988.9
20260831050536 88 0.0 1.0 0.00 0.00 0.00 49 988.8
20260831045516 87 0.0 0.0 0.00 0.00 0.00 49 988.7
20260831044516 87 0.0 0.0 0.00 0.00 0.00 50 988.8
20260831043516 86 0.0 0.0 0.00 0.00 0.00 51 988.7
20260831042517 86 0.0 0.0 0.00 0.00 0.00 51 988.8
20260831041537 86 0.0 0.0 0.00 0.00 0.00 52 988.7
20260831040516 85 0.0 0.0 0.00 0.00 0.00 52 988.8
20260831035516 85 0.0 0.0 0.00 0.00 0.00 52 988.7
20260831034516 85 0.0 0.0 0.00 0.00 0.00 53 988.6
20260831033516 85 0.0 0.0 0.00 0.00 0.00 52 988.5
20260831032517 86 0.0 0.0 0.00 0.00 0.00 51 988.5
20260831031516 86 0.0 0.0 0.00 0.00 0.00 51 988.6
20260831030517 87 0.0 0.0 0.00 0.00 0.00 50 988.5
20260831025516 87 0.0 0.0 0.00 0.00 0.00 50 988.5
20260831024517 88 0.0 0.0 0.00 0.00 0.00 49 988.3
20260831023517 88 0.0 0.0 0.00 0.00 0.00 48 988.2
20260831022556 89 0.0 0.0 0.00 0.00 0.00 47 988.0
20260831021536 89 0.0 0.0 0.00 0.00 0.00 46 988.0
20260831020516 90 0.0 0.0 0.00 0.00 0.00 45 987.8
20260831015516 91 0.0 0.0 0.00 0.00 0.00 43 987.7
20260831014516 91 0.0 0.0 0.00 0.00 0.00 43 987.6
20260831013516 92 0.0 0.0 0.00 0.00 0.00 42 987.5
20260831012516 93 0.0 0.0 0.00 0.00 0.00 41 987.4
20260831011517 94 0.0 0.0 0.00 0.00 0.00 39 987.3
20260831010536 95 0.0 1.0 0.00 0.00 0.00 38 987.3
20260831005517 95 0.0 1.0 0.00 0.00 0.00 38 987.2
20260831004537 96 156 1.0 2.0 0.00 0.00 0.00 37 987.1
20260831003516 97 150 0.0 1.0 0.00 0.00 0.00 36 987.1
20260831002517 98 162 0.0 2.0 0.00 0.00 0.00 35 987.2
20260831001517 98 141 0.0 1.0 0.00 0.00 0.00 35 987.2
20260831000516 98 0.0 0.0 0.00 0.00 0.00 36 987.2
20260830235517 98 160 0.0 8.0 0.00 0.00 0.00 35 987.3
20260830234516 98 151 1.0 2.0 0.00 0.00 0.00 34 987.4
20260830233517 100 144 1.0 3.0 0.00 0.00 0.00 32 987.2
20260830232516 100 149 0.0 2.0 0.00 0.00 0.00 33 987.3
20260830231516 100 0.0 1.0 0.00 0.00 0.00 32 987.3
20260830230516 100 147 1.0 4.0 0.00 0.00 0.00 32 987.3
20260830225536 100 135 0.0 3.0 0.00 0.00 0.00 32 987.4
20260830224516 101 156 3.0 4.0 0.00 0.00 0.00 31 987.5
20260830223516 100 155 1.0 3.0 0.00 0.00 0.00 32 987.5
20260830222517 101 137 2.0 3.0 0.00 0.00 0.00 30 987.5
20260830221516 100 170 2.0 5.0 0.00 0.00 0.00 30 987.5
20260830220516 101 130 2.0 7.0 0.00 0.00 0.00 31 987.6
20260830215516 101 132 0.0 3.0 0.00 0.00 0.00 31 987.6
20260830214517 100 94 0.0 3.0 0.00 0.00 0.00 32 987.6
20260830213536 100 170 1.0 3.0 0.00 0.00 0.00 33 987.7
20260830212516 101 203 2.0 5.0 0.00 0.00 0.00 32 987.9
20260830211516 101 154 1.0 5.0 0.00 0.00 0.00 32 987.9
20260830210517 101 153 2.0 4.0 0.00 0.00 0.00 32 988.0
20260830205536 101 140 1.0 4.0 0.00 0.00 0.00 32 988.1
20260830204516 99 171 1.0 9.0 0.00 0.00 0.00 33 988.3
20260830203516 99 138 1.0 5.0 0.00 0.00 0.00 33 988.4
20260830202517 100 146 2.0 4.0 0.00 0.00 0.00 33 988.6
20260830201517 101 200 1.0 4.0 0.00 0.00 0.00 33 988.6
20260830200516 99 156 1.0 6.0 0.00 0.00 0.00 35 988.7
20260830195516 99 151 1.0 4.0 0.00 0.00 0.00 35 988.9
20260830194516 100 112 1.0 3.0 0.00 0.00 0.00 35 989.1
20260830193516 100 154 3.0 5.0 0.00 0.00 0.00 34 989.1
20260830192516 100 193 3.0 5.0 0.00 0.00 0.00 35 989.2
20260830191516 99 118 4.0 12.0 0.00 0.00 0.00 36 989.4
20260830190516 100 202 0.0 1.0 0.00 0.00 0.00 36 989.6
20260830185516 101 177 2.0 5.0 0.00 0.00 0.00 36 989.7
20260830184517 101 253 3.0 9.0 0.00 0.00 0.00 35 989.7
20260830183517 101 251 3.0 7.0 0.00 0.00 0.00 35 989.8